Flag for Ukraine Weather past 2 weeks in Odesa, Ukraine

Now
37 °F

Passing clouds.


Feels Like: 31 °F
Forecast: 35 / 44 °F
Wind: 8 mph from Northeast

Location: Odesa Airport

Current Time: Oct 25, 2014 at 8:59:25 PM

Latest Report: Oct 25, 2014 at 8:30 PM


Visibility: N/A

Pressure: 30.39 "Hg

Humidity: 65%

Dew point: 27 °F

Location of OdesaLocation

Historic Weather in Odesa — Graph

°F

Odesa temperature yesterday

Maximum temperature yesterday: 48 °F (at 12:00 AM)
Minimum temperature yesterday: 34 °F (at 5:00 PM)
Average temperature yesterday: 39 °F

Past Weeks' High & Low Weather Summary

 TemperatureHumidityPressure
High73 °F (Oct 17, 2:30 PM)100% (Oct 10, 11:30 PM)30.42 "Hg (Oct 10, 11:30 PM)
Low32 °F (Oct 19, 5:00 AM)27% (Oct 13, 4:00 PM)29.68 "Hg (Oct 23, 1:00 AM)
Average52 °F80%30.00 "Hg
* Reported Oct 10 8:04 PM — Oct 25 8:00 PM, Odesa, Weather by CustomWeather, © 2014

Note: Actual official high and low records may vary slightly from our data, if they occured in-between our weather recording intervals... More about our weather records

Advertising

Odesa weather history for previous 24 hours

 ConditionsComfort  
Time TempWeatherWind HumidityBarometerVisibility
8:00 PM
Oct 25
37 °FPassing clouds.10 mph65%30.39 "HgN/A
7:30 PM37 °FPassing clouds.15 mph65%30.39 "HgN/A
7:00 PM37 °FPassing clouds.13 mph70%30.36 "HgN/A
6:57 PM37 °FPassing clouds.13 mph70%30.36 "HgN/A
6:30 PM37 °FScattered clouds.24 mph65%30.36 "HgN/A
6:00 PM39 °FPartly sunny.22 mph65%30.36 "HgN/A
5:30 PM39 °FPartly sunny.24 mph65%30.36 "HgN/A
5:00 PM39 °FPartly sunny.22 mph70%30.36 "HgN/A
4:30 PM39 °FPartly sunny.22 mph70%30.36 "HgN/A
4:00 PM39 °FPartly sunny.22 mph70%30.36 "HgN/A
3:30 PM39 °FPartly sunny.22 mph65%30.36 "HgN/A
3:00 PM39 °FPartly sunny.24 mph65%30.36 "HgN/A
2:30 PM39 °FScattered clouds.22 mph65%30.36 "HgN/A
2:00 PM39 °FScattered clouds.24 mph65%30.36 "HgN/A
1:30 PM39 °FScattered clouds.26 mph65%30.36 "HgN/A
1:00 PM37 °FScattered clouds.26 mph65%30.36 "HgN/A
12:30 PM36 °FScattered clouds.24 mph75%30.36 "HgN/A
12:00 PM37 °FScattered clouds.24 mph70%30.39 "HgN/A
11:30 AM36 °FPartly sunny.22 mph70%30.39 "HgN/A
11:00 AM36 °FPartly sunny.22 mph70%30.39 "HgN/A
10:30 AM34 °FPartly sunny.24 mph75%30.39 "HgN/A
10:00 AM34 °FPartly sunny.22 mph75%30.39 "HgN/A
9:30 AM34 °FPartly sunny.20 mph75%30.39 "HgN/A
9:00 AM32 °FPartly sunny.20 mph80%30.36 "HgN/A
8:30 AM32 °FPartly sunny.20 mph80%30.36 "HgN/A
8:00 AM32 °FPassing clouds.20 mph80%30.36 "HgN/A
7:30 AM32 °FPassing clouds.20 mph80%30.36 "HgN/A
7:00 AM32 °FPassing clouds.22 mph80%30.33 "HgN/A
6:30 AM32 °FPassing clouds.22 mph80%30.33 "HgN/A
6:00 AM32 °FPassing clouds.20 mph80%30.33 "HgN/A
5:30 AM32 °FPassing clouds.22 mph80%30.33 "HgN/A
5:00 AM34 °FPassing clouds.20 mph75%30.33 "HgN/A
4:30 AM34 °FPassing clouds.20 mph75%30.33 "HgN/A
4:00 AM34 °FPassing clouds.22 mph75%30.33 "HgN/A
3:30 AM34 °FPassing clouds.17 mph75%30.33 "HgN/A
3:00 AM34 °FPassing clouds.22 mph75%30.33 "HgN/A
2:30 AM34 °FPassing clouds.20 mph75%30.33 "HgN/A
2:00 AM34 °FOvercast.22 mph75%30.33 "HgN/A
1:30 AM34 °FMostly cloudy.20 mph81%30.33 "HgN/A
1:00 AM34 °FMostly cloudy.22 mph81%30.33 "HgN/A
12:53 AM34 °FLight rain. Overcast.22 mph81%30.33 "HgN/A
12:30 AM34 °FLight rain. Overcast.22 mph81%30.33 "HgN/A
12:00 AM34 °FLight rain. Overcast.22 mph87%30.33 "HgN/A
11:30 PM
Oct 24
34 °FLight rain. Overcast.22 mph87%30.33 "HgN/A
11:00 PM34 °FLight rain. Overcast.22 mph93%30.30 "HgN/A
10:30 PM34 °FLight rain. Overcast.22 mph93%30.30 "HgN/A
10:00 PM34 °FLight rain. Overcast.26 mph93%30.30 "HgN/A
9:30 PM34 °FLight rain. Overcast.22 mph93%30.30 "HgN/A
9:00 PM34 °FLight rain. Overcast.20 mph93%30.30 "HgN/A
8:30 PM34 °FLight rain. Fog.22 mph87%30.27 "Hg3 mi
8:00 PM34 °FLight rain. Overcast.24 mph87%30.27 "HgN/A
Weather by CustomWeather, © 2014

See weather overviewHow to use our weather pages